Location: Krakow
(50.0830°N, 19.9170°E)
Time: 13:20:59
(UTC+02:00)

Tiros 1 - Pass Details

Date: 16 February 2023
Orbit: 627 x 662 km, 48.4° (Epoch: 26 March)

Event Time Altitude Azimuth Distance (km) Brightness Sun altitude
Rises 17:56:52 0° 192° (SSW) 2,909 10.8 -9.8°
Reaches altitude 10° 18:00:21 10° 165° (SSE) 2,001 9.6 -10.3°
Maximum altitude 18:02:27 13° 138° (SE) 1,802 9.1 -10.6°
Enters shadow 18:04:12 11° 114° (ESE) 1,938 9.1 -10.9°
Drops below altitude 10° 18:04:35 10° 110° (ESE) 2,002 - -11.0°
Sets 18:08:03 0° 83° (E) 2,911 - -11.5°
